Location: Peebles
(55.6412°N, 3.1714°W)
Time: 15:58:28
(UTC+01:00)

FLOCK 4S 19 - Visible Passes

Search period start: 27 September 2023 00:00
Search period end: 07 October 2023 00:00
Orbit: 460 x 473 km, 97.4° (Epoch: 26 September)

Date Brightness Start Highest point End Pass type
(mag) Time Alt. Az. Time Alt. Az. Time Alt. Az.
27 Sep ? 20:43:53 16° NE 20:43:53 16° NE 20:45:54 10° NNE visible
27 Sep ? 22:17:53 31° NNW 22:17:53 31° NNW 22:19:52 10° NNW visible
28 Sep ? 21:47:48 33° N 21:47:48 33° N 21:49:55 10° N visible
28 Sep ? 23:21:48 11° NW 23:21:48 11° NW 23:22:04 10° NW visible
29 Sep ? 21:17:41 25° NNE 21:17:41 25° NNE 21:19:43 10° N visible
29 Sep ? 22:51:40 17° NW 22:51:40 17° NW 22:52:49 10° NNW visible
30 Sep ? 20:47:31 16° NE 20:47:31 16° NE 20:49:11 10° NNE visible
30 Sep ? 22:21:30 24° NNW 22:21:30 24° NNW 22:23:03 10° NNW visible
01 Oct ? 21:51:17 27° N 21:51:17 27° N 21:53:00 10° N visible
02 Oct ? 21:21:02 22° NNE 21:21:02 22° NNE 21:22:42 10° N visible
02 Oct ? 22:55:01 14° NW 22:55:01 14° NW 22:55:43 10° NW visible
03 Oct ? 20:50:44 16° NE 20:50:44 16° NE 20:52:04 10° NNE visible
03 Oct ? 22:24:43 19° NNW 22:24:43 19° NNW 22:25:52 10° NNW visible
04 Oct ? 21:54:23 21° N 21:54:23 21° N 21:55:42 10° N visible
05 Oct ? 21:24:00 19° NNE 21:24:00 19° NNE 21:25:17 10° N visible
05 Oct ? 22:57:58 11° NW 22:57:58 11° NW 22:58:13 10° NW visible
06 Oct ? 20:53:34 15° NNE 20:53:34 15° NNE 20:54:33 10° NNE visible
06 Oct ? 22:27:33 15° NNW 22:27:33 15° NNW 22:28:16 10° NNW visible
